Regional Weather Roundup
Issued by NWS

Home | Current Version | Previous Version | Text Only | Print | Product List | Glossary Off
Versions: 1 2 3 4 5 6 7 8 9 10 11 12 13 14 15 16 17 18 19 20 21 22 23 24 25 26 27 28 29 30 31 32 33 34 35 36 37 38 39 40 41 42 43 44 45 46 47 48

000
ASUS45 KBOI 220510
RWRID
WEATHER ROUNDUP FOR IDAHO
NATIONAL WEATHER SERVICE BOISE ID
1100 PM MDT TUE OCT 21 2014

NOTE: "FAIR" INDICATES FEW OR NO CLOUDS BELOW 12000 FEET
WITH NO SIGNIFICANT WEATHER AND/OR OBSTRUCTIONS TO VISIBILITY

IDZ012-014-220600-
SOUTHWEST IDAHO


CITY           SKY/WX    TMP DP  RH WIND       PRES   REMARKS
BOISE          CLEAR     48  40  73 SE10      30.06R
CALDWELL       CLEAR     45  30  57 SE9       30.07S
MOUNTAIN HOME  CLEAR     44  39  83 E6        30.08R
$$

IDZ016-017-220600-
SOUTHCENTRAL IDAHO


CITY           SKY/WX    TMP DP  RH WIND       PRES   REMARKS
BURLEY         CLEAR     40  34  79 SW13      30.09S WCI  32
JEROME         CLEAR     40  34  79 SE7       30.10S
TWIN FALLS     CLEAR     39  31  72 S9        30.10S WCI  33
$$

IDZ019>023-220600-
SOUTHEAST IDAHO


CITY           SKY/WX    TMP DP  RH WIND       PRES   REMARKS
IDAHO FALLS    CLEAR     43  35  73 SW12      30.09R
POCATELLO      CLEAR     40  33  76 S3        30.12R
REXBURG        MOCLDY    43  34  70 S8        30.08R
$$

IDZ006-010-011-018-031-032-220600-
CENTRAL IDAHO MOUNTAINS


CITY           SKY/WX    TMP DP  RH WIND       PRES   REMARKS
MCCALL         MOCLDY    34  33  96 CALM      30.07S FOG
HAILEY         CLEAR     37  28  70 W9        30.10R WCI  31
STANLEY          N/A     30  29  96 CALM      30.13R
SALMON         MOCLDY   N/A N/A N/A MISG        N/A
CHALLIS        CLOUDY    38  35  89 NW3       30.10R
$$

IDZ002-004-006-007-026-220600-
NORTHERN IDAHO


CITY           SKY/WX    TMP DP  RH WIND       PRES   REMARKS
LEWISTON       CLEAR     48  40  73 SE6       29.99F
LOWELL           N/A     48  46  93 CALM      30.08S
COEUR D`ALENE  MOCLDY    48  41  76 S8        29.98R
MULLAN PASS    CLOUDY    35  34  96 SW7       30.01S WCI  29
$$



USA.gov is the U.S. government's official web portal to all federal, state and local government web resources and services.